| time (UTC) | temp C | wind direction | speed KPH | gust KPH | rain 1hr cm | rain 24hr cm | rain mn cm | humidity % | barometer mb |
| 20260505111223 | 25 | 345 | 3.2 | 9.7 | 0.00 | 0.00 | 0.00 | 36 | 964.9 |
| 20260505110223 | 25 | 129 | 1.6 | 9.7 | 0.00 | 0.00 | 0.00 | 37 | 965.0 |
| 20260505101223 | 23 | 131 | 6.4 | 12.9 | 0.00 | 0.00 | 0.00 | 44 | 965.6 |
| 20260505100223 | 23 | 131 | 6.4 | 12.9 | 0.00 | 0.00 | 0.00 | 44 | 965.6 |
| 20260505095223 | 23 | 107 | 3.2 | 9.7 | 0.00 | 0.00 | 0.00 | 45 | 965.8 |
| 20260505094223 | 22 | 104 | 4.8 | 12.9 | 0.00 | 0.00 | 0.00 | 47 | 965.9 |
| 20260505093223 | 22 | 104 | 4.8 | 12.9 | 0.00 | 0.00 | 0.00 | 47 | 965.9 |
| 20260505092223 | 22 | 45 | 3.2 | 9.7 | 0.00 | 0.00 | 0.00 | 50 | 966.1 |
| 20260505091223 | 21 | 161 | 3.2 | 9.7 | 0.00 | 0.00 | 0.00 | 50 | 966.2 |
| 20260505090223 | 21 | 123 | 3.2 | 9.7 | 0.00 | 0.00 | 0.00 | 52 | 966.3 |
| 20260505085223 | 21 | 123 | 3.2 | 9.7 | 0.00 | 0.00 | 0.00 | 52 | 966.3 |
| 20260505084223 | 20 | 135 | 3.2 | 6.4 | 0.00 | 0.00 | 0.00 | 52 | 966.4 |
| 20260505081223 | 19 | 11 | 1.6 | 6.4 | 0.00 | 0.00 | 0.00 | 56 | 966.6 |
| 20260505080223 | 18 | 142 | 3.2 | 6.4 | 0.00 | 0.00 | 0.00 | 58 | 966.8 |
| 20260505075223 | 18 | 142 | 3.2 | 6.4 | 0.00 | 0.00 | 0.00 | 58 | 966.8 |
| 20260505074223 | 18 | 9 | 1.6 | 4.8 | 0.00 | 0.00 | 0.00 | 59 | 966.8 |
| 20260505073223 | 17 | 90 | 1.6 | 4.8 | 0.00 | 0.00 | 0.00 | 60 | 967.0 |
| 20260505072223 | 17 | 90 | 1.6 | 4.8 | 0.00 | 0.00 | 0.00 | 60 | 967.0 |
| 20260505071223 | 17 | 315 | 1.6 | 3.2 | 0.00 | 0.00 | 0.00 | 61 | 967.1 |
| 20260505070223 | 17 | 90 | 3.2 | 9.7 | 0.00 | 0.00 | 0.00 | 63 | 967.1 |
| 20260505065223 | 17 | 90 | 3.2 | 9.7 | 0.00 | 0.00 | 0.00 | 63 | 967.1 |
| 20260505063223 | 15 | 90 | 1.6 | 4.8 | 0.00 | 0.00 | 0.00 | 63 | 967.4 |
| 20260505062223 | 15 | 90 | 1.6 | 4.8 | 0.00 | 0.00 | 0.00 | 63 | 967.4 |
| 20260505061223 | 15 | 315 | 1.6 | 3.2 | 0.00 | 0.00 | 0.00 | 63 | 967.5 |
| 20260505060223 | 15 | 90 | 1.6 | 3.2 | 0.00 | 0.00 | 0.00 | 63 | 967.5 |
| 20260505055223 | 15 | 315 | 1.6 | 3.2 | 0.00 | 0.00 | 0.00 | 63 | 967.3 |
| 20260505054223 | 15 | 315 | 1.6 | 3.2 | 0.00 | 0.00 | 0.00 | 63 | 967.3 |
| 20260505053223 | 15 | 315 | 1.6 | 3.2 | 0.00 | 0.00 | 0.00 | 63 | 967.4 |
| 20260505052223 | 15 | 196 | 1.6 | 4.8 | 0.00 | 0.00 | 0.00 | 62 | 967.5 |
| 20260505051223 | 15 | 196 | 1.6 | 4.8 | 0.00 | 0.00 | 0.00 | 62 | 967.5 |
| 20260505050223 | 15 | 184 | 1.6 | 3.2 | 0.00 | 0.00 | 0.00 | 61 | 967.4 |
| 20260505041223 | 15 | 333 | 1.6 | 3.2 | 0.00 | 0.00 | 0.00 | 59 | 967.5 |
| 20260505040223 | 15 | 333 | 1.6 | 3.2 | 0.00 | 0.00 | 0.00 | 59 | 967.5 |
| 20260505035223 | 15 | 315 | 1.6 | 3.2 | 0.00 | 0.00 | 0.00 | 58 | 967.5 |
| 20260505034223 | 16 | 174 | 1.6 | 3.2 | 0.00 | 0.00 | 0.00 | 56 | 967.8 |
| 20260505033223 | 16 | 174 | 1.6 | 3.2 | 0.00 | 0.00 | 0.00 | 56 | 967.8 |
| 20260505032223 | 16 | 174 | 1.6 | 3.2 | 0.00 | 0.00 | 0.00 | 56 | 967.8 |
| 20260505031223 | 16 | 174 | 1.6 | 3.2 | 0.00 | 0.00 | 0.00 | 56 | 967.8 |
| 20260505030223 | 16 | 174 | 1.6 | 3.2 | 0.00 | 0.00 | 0.00 | 56 | 967.8 |
| 20260505025223 | 16 | 344 | 1.6 | 4.8 | 0.00 | 0.00 | 0.00 | 56 | 967.8 |
| 20260505024223 | 16 | 344 | 1.6 | 4.8 | 0.00 | 0.00 | 0.00 | 56 | 967.8 |
| 20260505023223 | 16 | 90 | 1.6 | 3.2 | 0.00 | 0.00 | 0.00 | 55 | 967.9 |
| 20260505022223 | 16 | 333 | 1.6 | 3.2 | 0.00 | 0.00 | 0.00 | 55 | 967.9 |
| 20260505021223 | 16 | 225 | 1.6 | 3.2 | 0.00 | 0.00 | 0.00 | 54 | 968.0 |
| 20260505020223 | 16 | 225 | 1.6 | 3.2 | 0.00 | 0.00 | 0.00 | 54 | 968.0 |
| 20260505015223 | 16 | 270 | 1.6 | 3.2 | 0.00 | 0.00 | 0.00 | 53 | 968.1 |
| 20260505014223 | 17 | 360 | 1.6 | 3.2 | 0.00 | 0.00 | 0.00 | 51 | 968.6 |
| 20260505013223 | 17 | 360 | 1.6 | 3.2 | 0.00 | 0.00 | 0.00 | 51 | 968.6 |
| 20260505012223 | 17 | 360 | 1.6 | 3.2 | 0.00 | 0.00 | 0.00 | 51 | 968.6 |
| 20260505011223 | 17 | 360 | 1.6 | 3.2 | 0.00 | 0.00 | 0.00 | 51 | 968.6 |
| 20260505010223 | 17 | 360 | 1.6 | 3.2 | 0.00 | 0.00 | 0.00 | 51 | 968.6 |
| 20260505005223 | 17 | 360 | 1.6 | 3.2 | 0.00 | 0.00 | 0.00 | 51 | 968.6 |
| 20260505004223 | 17 | 329 | 1.6 | 3.2 | 0.00 | 0.00 | 0.00 | 51 | 968.7 |
| 20260505003223 | 17 | 332 | 1.6 | 4.8 | 0.00 | 0.00 | 0.00 | 50 | 968.7 |
| 20260505002223 | 17 | 338 | 1.6 | 3.2 | 0.00 | 0.00 | 0.00 | 50 | 968.8 |
| 20260505001223 | 17 | 323 | 1.6 | 3.2 | 0.00 | 0.00 | 0.00 | 49 | 968.8 |
| 20260505000223 | 17 | 315 | 3.2 | 6.4 | 0.00 | 0.00 | 0.00 | 49 | 968.8 |
| 20260504235223 | 17 | 339 | 1.6 | 3.2 | 0.00 | 0.00 | 0.00 | 49 | 968.9 |
| 20260504234223 | 17 | 340 | 3.2 | 4.8 | 0.00 | 0.00 | 0.00 | 48 | 969.0 |
| 20260504233223 | 17 | 322 | 3.2 | 4.8 | 0.00 | 0.00 | 0.00 | 48 | 969.1 |
| 20260504232223 | 17 | 340 | 3.2 | 4.8 | 0.00 | 0.00 | 0.00 | 47 | 969.2 |
| 20260504231223 | 18 | 315 | 1.6 | 6.4 | 0.00 | 0.00 | 0.00 | 47 | 969.3 |
| 20260504230223 | 18 | 337 | 3.2 | 6.4 | 0.00 | 0.00 | 0.00 | 46 | 969.5 |
| 20260504225223 | 18 | 333 | 3.2 | 8.0 | 0.00 | 0.00 | 0.00 | 46 | 969.6 |
| 20260504224223 | 18 | 320 | 3.2 | 4.8 | 0.00 | 0.00 | 0.00 | 45 | 969.7 |
| 20260504223223 | 18 | 322 | 3.2 | 8.0 | 0.00 | 0.00 | 0.00 | 44 | 969.6 |
| 20260504222223 | 18 | 323 | 3.2 | 4.8 | 0.00 | 0.00 | 0.00 | 44 | 969.7 |
| 20260504221223 | 18 | 304 | 3.2 | 4.8 | 0.00 | 0.00 | 0.00 | 43 | 969.7 |
| 20260504220223 | 19 | 304 | 1.6 | 3.2 | 0.00 | 0.00 | 0.00 | 43 | 969.7 |
| 20260504215223 | 19 | 270 | 1.6 | 4.8 | 0.00 | 0.00 | 0.00 | 43 | 969.6 |
| 20260504214223 | 19 | 332 | 3.2 | 4.8 | 0.00 | 0.00 | 0.00 | 42 | 969.6 |
| 20260504213223 | 19 | 341 | 1.6 | 3.2 | 0.00 | 0.00 | 0.00 | 43 | 969.6 |
| 20260504212223 | 19 | 333 | 1.6 | 4.8 | 0.00 | 0.00 | 0.00 | 42 | 969.7 |
| 20260504211223 | 19 | 300 | 3.2 | 6.4 | 0.00 | 0.00 | 0.00 | 42 | 969.6 |
| 20260504210223 | 20 | 315 | 3.2 | 6.4 | 0.00 | 0.00 | 0.00 | 41 | 969.7 |
| 20260504205223 | 20 | 330 | 3.2 | 4.8 | 0.00 | 0.00 | 0.00 | 41 | 969.9 |
| 20260504204223 | 20 | 225 | 3.2 | 6.4 | 0.00 | 0.00 | 0.00 | 40 | 969.9 |
| 20260504203223 | 20 | 315 | 3.2 | 9.7 | 0.00 | 0.00 | 0.00 | 39 | 969.9 |
| 20260504202223 | 20 | 315 | 3.2 | 6.4 | 0.00 | 0.00 | 0.00 | 38 | 969.9 |
| 20260504201223 | 20 | 343 | 3.2 | 4.8 | 0.00 | 0.00 | 0.00 | 37 | 970.0 |
| 20260504200223 | 20 | 336 | 1.6 | 4.8 | 0.00 | 0.00 | 0.00 | 37 | 970.0 |
| 20260504195223 | 21 | 116 | 3.2 | 6.4 | 0.00 | 0.00 | 0.00 | 37 | 970.0 |
| 20260504194223 | 21 | 330 | 1.6 | 3.2 | 0.00 | 0.00 | 0.00 | 36 | 970.0 |
| 20260504193223 | 21 | 311 | 3.2 | 4.8 | 0.00 | 0.00 | 0.00 | 36 | 969.9 |
| 20260504192223 | 21 | 315 | 1.6 | 3.2 | 0.00 | 0.00 | 0.00 | 35 | 969.9 |
| 20260504191223 | 21 | 329 | 1.6 | 3.2 | 0.00 | 0.00 | 0.00 | 35 | 969.8 |
| 20260504190223 | 21 | 320 | 1.6 | 3.2 | 0.00 | 0.00 | 0.00 | 35 | 969.8 |
| 20260504185223 | 22 | 315 | 1.6 | 4.8 | 0.00 | 0.00 | 0.00 | 34 | 969.8 |
| 20260504184223 | 22 | 303 | 1.6 | 3.2 | 0.00 | 0.00 | 0.00 | 34 | 969.7 |
| 20260504183223 | 22 | 332 | 1.6 | 3.2 | 0.00 | 0.00 | 0.00 | 34 | 969.7 |
| 20260504182223 | 22 | 315 | 1.6 | 3.2 | 0.00 | 0.00 | 0.00 | 33 | 969.6 |
| 20260504181223 | 23 | 284 | 3.2 | 6.4 | 0.00 | 0.00 | 0.00 | 32 | 969.5 |
| 20260504180223 | 23 | 318 | 1.6 | 4.8 | 0.00 | 0.00 | 0.00 | 31 | 969.4 |
| 20260504175223 | 23 | 341 | 1.6 | 4.8 | 0.00 | 0.00 | 0.00 | 30 | 969.4 |
| 20260504174223 | 24 | 45 | 1.6 | 4.8 | 0.00 | 0.00 | 0.00 | 29 | 969.4 |
| 20260504173223 | 24 | 325 | 1.6 | 4.8 | 0.00 | 0.00 | 0.00 | 28 | 969.4 |
| 20260504172223 | 25 | 317 | 3.2 | 4.8 | 0.00 | 0.00 | 0.00 | 28 | 969.5 |
| 20260504171223 | 25 | 315 | 3.2 | 6.4 | 0.00 | 0.00 | 0.00 | 28 | 969.5 |
| 20260504170223 | 25 | 307 | 3.2 | 8.0 | 0.00 | 0.00 | 0.00 | 27 | 969.6 |
| 20260504160223 | 25 | 304 | 3.2 | 9.7 | 0.00 | 0.00 | 0.00 | 27 | 969.9 |
| 20260504150223 | 25 | 270 | 3.2 | 9.7 | 0.00 | 0.00 | 0.00 | 27 | 970.2 |
| 20260504141223 | 26 | 197 | 4.8 | 9.7 | 0.00 | 0.00 | 0.00 | 27 | 970.5 |
| 20260504140223 | 26 | 218 | 3.2 | 9.7 | 0.00 | 0.00 | 0.00 | 27 | 970.6 |
| 20260504130223 | 26 | 164 | 3.2 | 8.0 | 0.00 | 0.00 | 0.00 | 29 | 971.2 |
| 20260504120223 | 25 | 151 | 3.2 | 11.3 | 0.00 | 0.00 | 0.00 | 31 | 971.5 |